This demonstration page uses our WeatherBlox Daily Observations layout. Learn more.

Left ArrowRight Arrow

Hourly Observations for May 8, 2022

Temp ( °F °C ) Dew Point ( °F °C ) Humidity (%) Winds ( mph kmh ) Pressure ( in mb ) Visibility ( mi km ) Precip ( " mm )
12:53 am 00:53 Clear 43 6.1 32 0 65 65 WSW 10 17 29.53 1000 10 16 0.00 0.00
1:53 am 01:53 Clear 37 2.8 30 -1.1 76 76 SSW 8 13 29.54 1000 10 16 0.00 0.00
2:53 am 02:53 Cloudy 42 5.6 32 0 68 68 SW 9 15 29.53 1000 10 16 0.00 0.00
3:53 am 03:53 Cloudy 41 5 32 0 70 70 SSW 9 15 29.54 1000 10 16 0.00 0.00
4:53 am 04:53 Cloudy 43 6.1 31 -0.6 63 63 SW 12 19 29.53 1000 10 16 0.00 0.00
5:53 am 05:53 Cloudy 40 4.4 31 -0.6 70 70 SW 13 20 29.53 1000 10 16 0.00 0.00
6:53 am 06:53 Sunny 39 3.9 30 -1.1 70 70 SW 12 19 29.54 1000 10 16 0.00 0.00
7:53 am 07:53 Mostly Cloudy 43 6.1 30 -1.1 60 60 SW 14 22 29.54 1000 10 16 0.00 0.00
8:53 am 08:53 Mostly Sunny 48 8.9 32 0 54 54 SW 15 24 29.53 1000 10 16 0.00 0.00
9:53 am 09:53 Cloudy 53 11.7 27 -2.8 37 37 W 16 26 29.52 1000 10 16 0.00 0.00
10:53 am 10:53 Cloudy 55 12.8 26 -3.3 33 33 W 18 30 29.51 999 10 16 0.00 0.00
11:53 am 11:53 Mostly Cloudy 57 13.9 25 -3.9 29 29 W 22 35 29.49 999 10 16 0.00 0.00
12:53 pm 12:53 Mostly Sunny 58 14.4 21 -6.1 24 24 WSW 18 30 29.47 998 10 16 0.00 0.00
1:53 pm 13:53 Partly Cloudy 59 15 21 -6.1 23 23 SW 14 22 29.47 998 10 16 0.00 0.00
2:53 pm 14:53 Mostly Sunny 60 15.6 22 -5.6 23 23 WSW 16 26 29.46 998 10 16 0.00 0.00
3:53 pm 15:53 Partly Cloudy 59 15 23 -5 25 25 WSW 15 24 29.46 998 10 16 0.00 0.00
4:53 pm 16:53 Sunny 60 15.6 18 -7.8 19 19 WSW 16 26 29.45 997 10 16 0.00 0.00
5:53 pm 17:53 Sunny 60 15.6 19 -7.2 20 20 W 13 20 29.45 997 10 16 0.00 0.00
6:53 pm 18:53 Mostly Cloudy 57 13.9 16 -8.9 20 20 SW 9 15 29.44 997 10 16 0.00 0.00
7:53 pm 19:53 Partly Cloudy 53 11.7 17 -8.3 24 24 undefined N/A 29.46 998 10 16 0.00 0.00
8:53 pm 20:53 Clear 43 6.1 19 -7.2 38 38 SW 8 13 29.48 998 10 16 0.00 0.00
9:53 pm 21:53 Clear 43 6.1 25 -3.9 49 49 W 9 15 29.49 999 10 16 0.00 0.00
10:53 pm 22:53 Clear 45 7.2 17 -8.3 33 33 WNW 12 19 29.48 998 10 16 0.00 0.00
11:53 pm 23:53 Clear 35 1.7 17 -8.3 48 48 SSW 7 11 29.50 999 10 16 0.00 0.00

Powered by AerisWeather